Regional Weather Roundup
Issued by NWS

Home | Current Version | Previous Version | Graphics & Text | Print | Product List | Glossary On
Versions: 1 2 3 4 5 6 7 8 9 10 11 12 13 14 15 16 17 18 19 20 21 22 23 24 25 26 27 28 29 30 31 32 33 34 35 36 37 38 39 40 41 42 43 44 45 46 47 48 49 50
000
ASUS45 KSLC 030910
RWRUT

UTAH REGIONAL WEATHER ROUNDUP
NATIONAL WEATHER SERVICE SALT LAKE CITY UT
300 AM MDT SUN MAY 03 2015

UTZ001>011-023>025-031000-

NORTHERN UTAH

CITY           SKY/WX    TMP DP  RH WIND       PRES   REMARKS
BRIGHAM CITY   CLOUDY    62  39  42 NW10      29.87R
HILL AFB       MOCLDY    63  34  34 SE8G17    29.89S
LOGAN          CLEAR     59  40  49 SE5       29.87S
OGDEN          CLOUDY    62  36  37 S10       29.86S
PROVO AIRPORT  PTCLDY    55  39  54 SE3       29.91S
SALT LAKE CITY MOCLDY    61  41  47 SE9       29.86F
VERNAL         PTCLDY    49  32  52 W7        29.95S
WENDOVER       CLOUDY    63  34  34 SW5       29.88R
HEBER CITY     CLOUDY    45  36  70 SE6       29.96S
WEST JORDAN    PTCLDY    55  37  50 SW7       29.89F

$$

UTZ012>022-026-027-031000-

SOUTHERN/CENTRAL UTAH

CITY           SKY/WX    TMP DP  RH WIND       PRES   REMARKS
BLANDING       CLOUDY    53  32  44 NE8       30.08S
BRYCE CANYON   CLOUDY    40  28  62 VRB5      30.10F
CEDAR CITY     PTCLDY    52  28  39 E3        29.98S
DELTA          MOCLDY    58  28  31 S14       29.90F
HANKSVILLE     MOCLDY    59  27  29 CALM      29.91S
MILFORD        PTCLDY    55  27  34 W8        29.93S
MOAB/CYNLANDS  PTCLDY    65  28  24 SE5       29.87S
PRICE          PTCLDY    53  23  31 VRB5      29.95S
ST GEORGE      PTSUNNY   72  28  20 NE3       29.85S
KANAB          CLOUDY    46  32  57 NE3       30.00F

$$

REGIONAL REPORTS     COLORADO/ARIZONA

CITY           SKY/WX    TMP DP  RH WIND       PRES   REMARKS
CRAIG, CO      CLEAR     37  33  85 W5        30.02F WCI  33
GRAND JUNCTION PTCLDY    59  36  42 E8        29.90F
RIFLE          PTCLDY    50  37  61 NE6       30.00F
MONTROSE       MOCLDY    59  30  33 E9        30.01R
CORTEZ         CLEAR     44  33  65 N3        30.04F
PAGE, AZ       MOCLDY    67  30  25 SW5       29.92F
GRAND CANYON   PTCLDY    35  28  75 CALM      30.09F
KINGMAN        CLEAR     64  35  34 SE10      29.89S
FLAGSTAFF      CLOUDY    53  33  46 SW13      30.13S

$$

REGIONAL REPORTS    NEVADA/IDAHO/WYOMING

CITY           SKY/WX    TMP DP  RH WIND       PRES   REMARKS
LAS VEGAS, NV  CLEAR     77  29  17 S12       29.75S
ELY            MOCLDY    55  25  31 W8        30.00R
ELKO           CLOUDY    60  36  40 SW6       29.92F
POCATELLO, ID  CLEAR     47  29  49 NE13      29.87S
BURLEY         MOCLDY    50  38  63 SW5       29.84F
EVANSTON, WY   CLOUDY    50  32  50 E6        30.03F
ROCK SPRINGS   CLOUDY    45  38  76 NW7       30.02R
KEMMERER       CLOUDY    46  32  57 SW5       30.04S

$$


USA.gov is the U.S. government's official web portal to all federal, state and local government web resources and services.